Regional Weather Roundup
Issued by NWS

Home | Current Version | Previous Version | Text Only | Print | Product List | Glossary Off
Versions: 1 2 3 4 5 6 7 8 9 10 11 12 13 14 15 16 17 18 19 20 21 22 23 24 25 26 27 28 29 30 31 32 33 34 35 36 37 38 39 40 41 42 43 44 45 46 47 48 49 50

000
ASUS43 KLSX 211507
RWRMO

WEATHER SUMMARY FOR MISSOURI
NATIONAL WEATHER SERVICE SPRINGFIELD MO
1000 AM CDT TUE OCT 21 2014

NOTE: "FAIR" INDICATES FEW OR NO CLOUDS BELOW 12,000 FEET WITH NO
       SIGNIFICANT WEATHER AND/OR OBSTRUCTIONS TO VISIBILITY.
       CURRENT SKY AND/OR WEATHER CONDITIONS ARE NOT AVAILABLE FOR
       CHILLICOTHE AND FARMINGTON.

MOZ001>031-035>038-043-044-053-054-211600-
...NORTHERN AND WESTERN MISSOURI...

CITY           SKY/WX    TMP DP  RH WIND       PRES   REMARKS
KANSAS CTY INT SUNNY     60  47  61 CALM      30.14R
KANSAS C DTWN  SUNNY     56  51  84 CALM      30.14S HAZE
LEE`S SUMMIT   SUNNY     60  45  57 CALM      30.15R
ST JOSEPH      SUNNY     51  47  86 CALM      30.15R
CHILLICOTHE      N/A     54  46  74 CALM      30.15S
KIRKSVILLE     SUNNY     54  47  77 E6        30.17R

$$
MOZ066>068-077>081-088>096-101>105-211600-
...SOUTHWEST MISSOURI...

CITY           SKY/WX    TMP DP  RH WIND       PRES   REMARKS
SPRINGFIELD    SUNNY     62  51  67 S6        30.14R
JOPLIN         SUNNY     59  58  96 CALM      30.14S FOG

$$
MOZ032>034-039>042-045>050-055>058-069>072-211600-
...CENTRAL MISSOURI...

CITY           SKY/WX    TMP DP  RH WIND       PRES   REMARKS
COLUMBIA       SUNNY     60  48  64 NW3       30.14R
JEFFERSON CITY SUNNY     52  47  83 CALM      30.15R
ROLLA          SUNNY     58  46  64 W5        30.13R
SEDALIA        SUNNY     61  45  55 CALM      30.16R
WHITEMAN AFB   SUNNY     58  48  70 N2        30.14R
OSAGE BEACH    SUNNY     55  48  76 NE5       30.15R

$$
MOZ051-052-059>065-211600-
...EAST CENTRAL MISSOURI...

CITY           SKY/WX    TMP DP  RH WIND       PRES   REMARKS
ST LOUIS INTL  SUNNY     57  47  69 NE6       30.14R
SPIRIT OF STL  SUNNY     57  47  69 CALM      30.13R
ST CHARLES     SUNNY     57  47  69 E5        30.13R

$$
MOZ072>076-082>087-097>100-106>115-211600-
...SOUTH CENTRAL AND SOUTHEAST MISSOURI...

CITY           SKY/WX    TMP DP  RH WIND       PRES   REMARKS
CAPE GIRARDEAU SUNNY     60  49  66 NW5       30.11R
FARMINGTON     SUNNY     61  45  55 NW7       30.14R
WEST PLAINS    SUNNY     63  46  54 W3        30.15R

$$



USA.gov is the U.S. government's official web portal to all federal, state and local government web resources and services.